Regional Weather Roundup
Issued by NWS Boston, MA

Home | Current Version | Previous Version | Text Only | Print | Product List | Glossary On
Versions: 1 2 3 4 5 6 7 8 9 10 11 12 13 14 15 16 17 18 19 20 21 22 23 24 25 26 27
000
ASUS41 KBOX 242010
RWRBOX

REGIONAL WEATHER ROUNDUP
NATIONAL WEATHER SERVICE TAUNTON MA
300 PM EST TUE JAN 24 2017

NOTE:  "FAIR" INDICATES FEW OR NO CLOUDS BELOW 12,000 FEET WITH NO
SIGNIFICANT WEATHER AND/OR OBSTRUCTIONS TO VISIBILITY.

MAZALL-242100-
EASTERN MASSACHUSETTS

CITY           SKY/WX    TMP DP  RH WIND       PRES   REMARKS
BOSTON         LGT RAIN  39  38  96 N21G35    29.29F FOG     WCI  29
BEVERLY        LGT RAIN  36  36 100 N24G38    29.30F VSB 1   WCI  24
LAWRENCE       CLOUDY    35  33  92 NE17G29   29.36F WCI  25
BEDFORD        LGT RAIN  34  31  88 N17       29.31F FOG     WCI  23
BLUE HILL        N/A     37  36  96 N25G43    29.24F WCI  25
NORWOOD        CLOUDY    41  38  89 N15G26    29.29F FOG
MARSHFIELD     CLOUDY    45  45 100 N12G18    29.25S FOG
PLYMOUTH       LGT RAIN  45  43  93 N16       29.24R VSB 1
TAUNTON        LGT RAIN  45  42  89 N13G21    29.24S FOG
NEW BEDFORD    LGT RAIN  46  44  93 N12G20    29.21S FOG
$$

MAZALL-242100-
CAPE COD AND THE ISLANDS

CITY           SKY/WX    TMP DP  RH WIND       PRES   REMARKS
FALMOUTH       DRZL/FOG  46  46 100 MISG      29.19S VSB 1/2
HYANNIS        FOG       45  44  97 NW7       29.18S VSB 1/4
CHATHAM        CLOUDY    52  51  97 S9G20     29.17S FOG
PROVINCETOWN   CLOUDY    46  45  96 NE17      29.19F FOG
NANTUCKET      CLOUDY    52  50  93 SE15      29.15S FOG
MARTHAS VNYRD  FOG       49  48  97 N8        29.18R VSB 1/4
$$

MAZALL-242100-
CENTRAL AND WESTERN MASSACHUSETTS

CITY           SKY/WX    TMP DP  RH WIND       PRES   REMARKS
WORCESTER      FRZ RAIN  31  29  92 NE13G31   29.28F FOG     WCI  21
FITCHBURG      MIX PCPN  35  32  88 N12G21    29.35F FOG     WCI  27
ORANGE         CLOUDY    34  32  92 N8        29.35F WCI  27
SPRINGFIELD    CLOUDY    35  32  87 NE16      29.30F WCI  26
WESTFIELD      CLOUDY    35  31  85 N15G29    29.31F WCI  25
NORTH ADAMS    CLOUDY    34  30  85 MISG      29.38F
PITTSFIELD     CLOUDY    34  29  82 N5        29.34S WCI  30
$$

RIZALL-242100-
RHODE ISLAND

CITY           SKY/WX    TMP DP  RH WIND       PRES   REMARKS
PROVIDENCE     RAIN      42  40  92 N25G31    29.24F VSB 1
NEWPORT        LGT RAIN  44  44 100 N22G31    29.20S FOG
SMITHFIELD     LGT RAIN  37  36  96 NE21G32   29.26S FOG     WCI  26
WESTERLY       CLOUDY    45  40  82 N14G23    29.19F
$$

CTZALL-242100-
CONNECTICUT

CITY           SKY/WX    TMP DP  RH WIND       PRES   REMARKS
BRADLEY INTL   LGT RAIN  35  31  85 N13       29.31S WCI  26
HARTFORD       RAIN      36  33  89 N14       29.30R FOG     WCI  27
BRIDGEPORT     LGT RAIN  39  33  79 N17       29.27S WCI  30
DANBURY        LGT RAIN  36  33  89 N13       29.32R FOG     WCI  27
GROTON         CLOUDY    42  39  89 N21G33    29.18F FOG
NEW HAVEN      CLOUDY    38  34  85 N23G29    29.25R WCI  27
CHESTER        LGT RAIN  37  36  93 N17G29    29.23R WCI  28
MERIDEN        LGT RAIN  37  32  82 N14G24    29.28S WCI  28
WILLIMANTIC    LGT RAIN  38  34  85 N10G18    29.28R FOG     WCI  31
OXFORD         CLOUDY    36  28  75 N17G23    29.29R FOG     WCI  25
$$

MEZ002-015-021-024-NHZ003-005-008-011-012-014-VTZ005-008-242100-
NORTHERN NEW ENGLAND

CITY           SKY/WX    TMP DP  RH WIND       PRES   REMARKS
PORTLAND ME    LGT RAIN  32  30  92 N14       29.46F FOG     WCI  22
BANGOR ME      LGTSLEET  32  31  96 NE13      29.58F FOG     WCI  22
CONCORD NH     CLOUDY    35  29  78 NE13G30   29.41F WCI  26
MANCHESTER NH  NOT AVBL
NASHUA NH      NOT AVBL
PORTSMOUTH NH  LGT RAIN  33  31  90 N17G30    29.36F WCI  23
JAFFREY NH     NOT AVBL
KEENE NH       NOT AVBL
BURLINGTON VT  FRZ DRZL  32  30  92 NW10      29.52S FOG     WCI  24
MT. WASHINGTON FRZ RAIN  23  23 100 E38G58      N/A  VSB 1/8 WCI   4
$$

NYZ052-076-242100-
EASTERN NEW YORK

CITY           SKY/WX    TMP DP  RH WIND       PRES   REMARKS
ALBANY         LGTSLEET  34  31  88 N10       29.45S FOG     WCI  26
NEW YORK CITY  LGT RAIN  39  34  82 NW20      29.31S WCI  29
$$

ANZALL-242100-
MARINE OBSERVATIONS

STATION/POSITION TIME  TEMP    WIND        PRES    VSBY  WAVE
                       AIR SEA DIR/SP/G                  HT/PER
                 (UTC) (F)     (DEG/KT/KT) (MB)    (MI)  (FT/S)
BOSTON BUOY      1850   44 44   20/ 29/ 35  990.1         16/12
BUZZARDS BAY     1900   44      20/ 19/ 22  988.3R
NANTUCKET SOUND  1850   49 45  170/ 12/ 16  987.6          3/ 6
MASS BAY-STELLWA 1904   45 45   20/ 27/ 35  991.5F  1 1/2
ISLE OF SHOALS   1900   35      10/ 34/ 39  994.1F
S OF BLOCK IS    1955      47                N/A          10/11
$$

......................KEY.........................
  SKY/WX - SKY CONDITION/PRESENT WEATHER
  TMP    - TEMPERATURE IN FAHRENHEIT
  DWPT   - DEWPOINT IN FAHRENHEIT
  RH     - RELATIVE HUMIDITY IN PERCENT
  WIND   - DIRECTION AND SPEED IN MPH
  PRES   - MEAN SEA LEVEL PRESSURE IN INCHES OF HG
  WCI    - WIND CHILL INDEX
  VSB    - VISIBILITY IN MILES
  HX     - HEAT INDEX
  TC     - TEMPERATURE IN CELSIUS
  VRB    - VARIABLE WIND DIRECTION
  N/A    - NOT AVAILABLE




USA.gov is the U.S. government's official web portal to all federal, state and local government web resources and services.